Content
SEND FEEDBACK

Daily
Averages
Monthly
Summary
United States of America

HAZELWOOD, MISSOURI


Home > North America > United States > Missouri
Elevation: 174 meters     Latitude: 38 45N     Longitude: 090 22W

WEATHER
 
SELECT A DAY
Number of Records: 199,017;   Date Range: 1/1/95 - 10/1/14
 
SHARE

PRINT THIS DATA

[ ← Previous Day ]
WEATHER ALMANAC - 18 JANUARY, 2013
[ Next Day → ]
[ °F ]   °C
Weather ElementAverageHighLow
Temperature4.3 °C13.3 °C (3:54 pm)-7.2 °C (2:54 am)
Dewpoint-6.4 °C-3.3 °C (11:54 pm)-9.4 °C (2:54 am)
Humidity51.7 %88 % (4:54 am)25 % (3:54 pm)
Barometer1027.1 hPa1033.9 hPa (1:54 am)1020.7 hPa (9:54 pm)
Wind Speed13 km/h22.2 km/h (1:54 pm)
Wind Gust37 km/h (3:54 pm)
Weather ElementAverage
Visibility16.1 km
Wind DirectionSSE (163.5 °)

Weather ElementTotal
Precipitation---
Heating Degree Days15.3 (Base 18.3)
Averaged from 23 records on 18 January, 2013
WEATHER CONDITIONS BREAKOUT
WIND DIRECTION BREAKOUT
WEATHER BY HOUR - 18 JANUARY, 2013
[ °F ]   °C
Local TimeTemperatureDewpointHumidityBarometerVisibilityWind DirectionWind SpeedGust SpeedPrecipitationEventsConditions
1:54 AM-6.1 °C-8.3 °C85 %1033.9 hPa16.1 kmWSW (250°)5.6 km/hClear
2:54 AM-7.2 °C-9.4 °C85 %1033.5 hPa16.1 kmCalmClear
3:54 AM-6.7 °C-8.9 °C85 %1033.2 hPa16.1 kmCalmClear
4:54 AM-7.2 °C-8.9 °C88 %1033.2 hPa16.1 kmCalmClear
5:54 AM-7.2 °C-9.4 °C85 %1032.8 hPa16.1 kmCalmClear
6:54 AM-7.2 °C-9.4 °C85 %1032.8 hPa16.1 kmCalmClear
7:54 AM-2.2 °C-7.2 °C69 %1032.5 hPa16.1 kmSW (220°)13 km/hClear
8:54 AM1.1 °C-6.1 °C59 %1032.2 hPa16.1 kmSSW (210°)7.4 km/hClear
9:54 AM3.9 °C-6.1 °C49 %1031.2 hPa16.1 kmSSW (210°)14.8 km/h31.5 km/hClear
10:54 AM6.1 °C-5 °C45 %1030.1 hPa16.1 kmSSW (210°)20.4 km/h31.5 km/hClear
11:54 AM8.9 °C-4.4 °C39 %1028.1 hPa16.1 kmSW (220°)20.4 km/h27.8 km/hClear
12:54 PM10.6 °C-5.6 °C32 %1026.4 hPa16.1 kmSSW (200°)18.5 km/h31.5 km/hClear
1:54 PM12.2 °C-6.1 °C28 %1025.1 hPa16.1 kmSSW (200°)22.2 km/hClear
2:54 PM12.8 °C-6.1 °C27 %1023.7 hPa16.1 kmSSW (200°)22.2 km/h33.3 km/hClear
3:54 PM13.3 °C-6.7 °C25 %1022.7 hPa16.1 kmSouth (190°)20.4 km/h37 km/hClear
4:54 PM12.2 °C-6.7 °C26 %1022.4 hPa16.1 kmSSW (200°)14.8 km/hClear
5:54 PM11.1 °C-6.7 °C28 %1022.4 hPa16.1 kmSouth (190°)16.7 km/hClear
6:54 PM10.6 °C-6.1 °C31 %1022.4 hPa16.1 kmSSW (200°)22.2 km/h35.2 km/hClear
7:54 PM9.4 °C-5 °C36 %1021.7 hPa16.1 kmSSW (210°)14.8 km/h29.6 km/hClear
8:54 PM7.8 °C-4.4 °C42 %1021 hPa16.1 kmSSW (200°)18.5 km/hClear
9:54 PM7.8 °C-3.9 °C44 %1020.7 hPa16.1 kmSSW (210°)13 km/h29.6 km/hClear
10:54 PM7.2 °C-3.9 °C46 %1021 hPa16.1 kmSW (220°)20.4 km/hClear
11:54 PM6.7 °C-3.3 °C49 %1020.7 hPa16.1 kmSW (220°)14.8 km/h27.8 km/hClear
Hourly data recorded from KSUS, located 0 kilometers away from Hazelwood, Missouri







STORIES FROM OUR PARTNERS